Home   Weather   Longreach   Past weeks
Flag for Australia

Past Weather in Longreach, Queensland, Australia — Yesterday and Last 2 Weeks

Now
80 °F

Pleasantly warm.


Feels Like: 79 °F
Forecast: 92 / 64 °F
Wind: 12 mph from East

Location: Longreach Airport

Current Time: Oct 23, 2019 at 9:43:50 pm

Latest Report: Oct 23, 2019 at 9:00 pm


Visibility: N/A

Pressure: 30.00 "Hg

Humidity: 22%

Dew Point: 38 °F

Location of LongreachLocation

Past Weather in Longreach — Graph

°F

Longreach Temperature Yesterday

Maximum temperature yesterday: 92 °F (at 4:00 pm)
Minimum temperature yesterday: 65 °F (at 4:00 am)
Average temperature yesterday: 79 °F

High & Low Weather Summary for the Past Weeks

 TemperatureHumidityPressure
High106 °F (Oct 16, 3:00 pm)49% (Oct 23, 6:00 am)30.13 "Hg (Oct 23, 6:00 am)
Low51 °F (Oct 12, 6:00 am)6% (Oct 19, 12:00 pm)29.74 "Hg (Oct 16, 3:00 pm)
Average81 °F16%29.93 "Hg
* Reported Oct 8 7:00 pm — Oct 23 7:00 pm, Longreach. Weather by CustomWeather, © 2019

Note: Actual official high and low records may vary slightly from our data, if they occured in-between our weather recording intervals... More about our weather records

Advertising

Longreach Weather History for the Previous 24 Hours

Scroll right to see more
 ConditionsComfort  
Time TempWeatherWind HumidityBarometerVisibility
7:00 pm
Wed, Oct 23
84 °FPleasantly warm.10 mph19%29.97 "HgN/A
6:00 pm89 °FHot.15 mph17%29.95 "HgN/A
4:00 pm92 °FHot.14 mph16%29.93 "HgN/A
3:00 pm93 °FPassing clouds.15 mph16%29.95 "HgN/A
1:00 pm91 °FHot.13 mph20%30.02 "HgN/A
12:00 pm87 °FPleasantly warm.16 mph23%30.06 "HgN/A
10:00 am84 °FPleasantly warm.20 mph28%30.11 "HgN/A
9:00 am80 °FPleasantly warm.23 mph33%30.13 "HgN/A
7:00 am73 °FMild.17 mph45%30.10 "HgN/A
6:00 am70 °FMild.10 mph49%30.07 "HgN/A
4:00 am70 °FMild.12 mph37%30.01 "HgN/A
3:00 am69 °FMild.9 mph31%30.00 "HgN/A
1:00 am71 °FMild.6 mph29%30.01 "HgN/A
12:00 am75 °FMild.9 mph27%30.02 "HgN/A
10:00 pm
Tue, Oct 22
78 °FPleasantly warm.10 mph25%30.04 "HgN/A
9:00 pm80 °FPleasantly warm.10 mph24%30.03 "HgN/A
Weather by CustomWeather, © 2019

See weather overview